Wetterstats.de || Aktuelle Messwerte || Aktuelle Wetterkarten NEU! || Radar / Satellit NEU! || Wetterarchiv || Langzeitwerte NEU! || Klim. Kenntage || Met. Ereignisse || Agrarwerte || Echtzeitwerte

Monatsübersicht für August 2020 Diagramm
 
Wetter Information zur Wetteranzeige
Zeitraffer
Tageslänge (hh:mm)
Höchsttemperatur in °C
Uhrzeit
Tiefsttemperatur in °C
Uhrzeit
Luftfeuchte (max., in %)
Uhrzeit
Luftfeuchte (min., in %)
Uhrzeit
Luftdruck (max., in hPa)
Uhrzeit
Luftdruck (min., in hPa)
Uhrzeit
Luftdruck (Ø, in hPa)
Regenrate (max, mm/h)
Uhrzeit
Niederschlag in mm
Verdunstung in mm
Solar in W/m² (Ø)
Solar in W/m² (max.)
UV-Index (max.)
Sonnenscheindauer (hh:mm)
Windrichtung (Ø)
Windstärke (Ø in km/h)
Windstärke (Ø in bft)
Windböe (max., in km/h)
Uhrzeit
Windböe (max., in bft)
Uhrzeit
Taupunkt (max., in °C)
Uhrzeit
Taupunkt (min., in °C)
Uhrzeit
Windchill (min., in °C)
Uhrzeit
Gewitterindex (max.)
Uhrzeit
Waldbrandindex (max.)
Uhrzeit
Graslandfeuerindex (max.)
Uhrzeit
Staubsturm-Index (max.)
Uhrzeit
01
Zeitraffer
15:35
28.1
17:40 Uhr
14.1
05:35 Uhr

86
05:35 Uhr
32
17:50 Uhr
1018.8
00:00 Uhr

1013.7
20:30 Uhr
1016.4
0,000
00:00 Uhr
0,000
0.279
316
769
12:55 Uhr
4.6
12:50 Uhr

08:07:00
2,3
1
19,3
14:45 Uhr

3
14.4
09:00 Uhr
9.6
15:50 Uhr
14.1
05:35 Uhr
7
00:00 Uhr
3.3
00:00 Uhr
5.6
00:00 Uhr
1.7
00:00 Uhr
02
Zeitraffer
15:32
25.4
10:15 Uhr
18.8
12:15 Uhr

88
12:20 Uhr
44
00:00 Uhr
1013.9
00:00 Uhr

1011.7
09:20 Uhr
1012.7
2,400
12:00 Uhr
0,800
1.295
94
510
09:05 Uhr
1.7
13:45 Uhr

00:30:00
0,7
0
12,9
00:05 Uhr

2
19.0
19:10 Uhr
10.8
00:25 Uhr
18.8
12:15 Uhr
12
21:40 Uhr
3.7
10:30 Uhr
5.8
10:00 Uhr
1.8
04:15 Uhr
03
Zeitraffer
15:28
23.1
16:05 Uhr
16.4
23:50 Uhr

91
03:40 Uhr
43
17:45 Uhr
1012.8
00:00 Uhr

1010.3
18:00 Uhr
1011.8
0,000
00:00 Uhr
0,000
1.219
108
796
13:50 Uhr
3.9
13:50 Uhr

00:48:00
0,7
0
22,5
17:55 Uhr

4
16.3
00:00 Uhr
9.3
18:35 Uhr
16.4
23:50 Uhr
10
00:00 Uhr
3.0
17:40 Uhr
5.2
17:50 Uhr
1.2
18:00 Uhr
04
Zeitraffer
15:25
23.3
17:00 Uhr
12.6
06:00 Uhr

85
05:25 Uhr
42
16:30 Uhr
1017.8
23:25 Uhr

1011.8
00:00 Uhr
1014.1
0,000
00:00 Uhr
0,000
2.236
214
835
12:10 Uhr
3.8
12:05 Uhr

04:48:00
0,6
0
14,5
09:10 Uhr

3
13.2
09:05 Uhr
9.0
16:30 Uhr
12.6
06:00 Uhr
5
21:35 Uhr
3.1
15:55 Uhr
5.3
15:55 Uhr
1.0
15:40 Uhr
05
Zeitraffer
15:22
27.2
13:25 Uhr
12.2
05:15 Uhr

85
04:20 Uhr
33
15:35 Uhr
1020.0
09:25 Uhr

1017.6
00:15 Uhr
1018.8
0,000
00:00 Uhr
0,000
2.921
266
791
12:30 Uhr
4.2
12:40 Uhr

07:37:00
0,5
0
16,1
16:15 Uhr

3
13.0
08:40 Uhr
8.8
15:50 Uhr
12.2
05:15 Uhr
4
08:25 Uhr
3.7
15:00 Uhr
5.9
13:00 Uhr
1.9
16:10 Uhr
06
Zeitraffer
15:18
28.9
17:35 Uhr
16.2
05:45 Uhr

73
05:50 Uhr
33
13:15 Uhr
1023.3
09:55 Uhr

1020.0
00:00 Uhr
1021.9
0,000
00:00 Uhr
0,000
3.683
304
765
13:00 Uhr
4.3
12:55 Uhr

07:51:00
1,9
0
22,5
11:20 Uhr

4
13.3
09:50 Uhr
9.3
13:05 Uhr
16.2
05:45 Uhr
7
23:45 Uhr
4.9
16:10 Uhr
5.9
00:00 Uhr
2.9
11:25 Uhr
07
Zeitraffer
15:15
31.8
18:00 Uhr
18.4
05:55 Uhr

74
05:55 Uhr
42
18:05 Uhr
1023.5
08:35 Uhr

1020.1
18:20 Uhr
1022.0
0,000
00:00 Uhr
0,000
3.124
247
795
11:30 Uhr
4.0
12:30 Uhr

06:23:00
2,0
0
19,3
11:25 Uhr

3
19.1
21:20 Uhr
13.1
00:00 Uhr
18.4
05:55 Uhr
14
21:50 Uhr
4.9
17:55 Uhr
5.9
00:00 Uhr
2.9
11:25 Uhr
08
Zeitraffer
15:11
33.8
16:25 Uhr
20.6
05:35 Uhr

79
05:15 Uhr
28
16:55 Uhr
1021.6
06:55 Uhr

1018.2
19:00 Uhr
1020.0
0,000
00:00 Uhr
0,000
3.328
279
714
13:10 Uhr
3.9
13:05 Uhr

07:41:00
0,9
0
24,1
12:40 Uhr

4
18.8
00:00 Uhr
12.4
16:55 Uhr
20.6
05:35 Uhr
13
00:00 Uhr
5.5
18:00 Uhr
5.9
00:00 Uhr
2.3
12:40 Uhr
09
Zeitraffer
15:07
34.4
12:30 Uhr
21.3
05:30 Uhr

87
22:20 Uhr
31
15:40 Uhr
1018.8
08:20 Uhr

1016.5
15:45 Uhr
1017.9
9,600
20:25 Uhr
1,600
3.048
244
678
11:30 Uhr
3.3
12:40 Uhr

05:20:00
2,0
0
30,6
16:15 Uhr

5
21.5
22:20 Uhr
14.3
15:40 Uhr
21.3
05:30 Uhr
16
21:50 Uhr
5.9
11:05 Uhr
5.9
00:00 Uhr
3.9
16:30 Uhr
10
Zeitraffer
15:04
30.8
12:20 Uhr
21.4
05:40 Uhr

78
01:25 Uhr
44
15:35 Uhr
1019.2
23:55 Uhr

1017.4
00:35 Uhr
1018.1
0,000
00:00 Uhr
0,000
2.540
202
702
13:50 Uhr
3.3
12:10 Uhr

03:26:00
1,8
0
22,5
19:05 Uhr

4
19.0
01:25 Uhr
16.5
23:30 Uhr
21.4
05:40 Uhr
13
00:00 Uhr
5.6
15:00 Uhr
5.9
00:00 Uhr
3.1
16:25 Uhr
11
Zeitraffer
15:00
31.2
16:05 Uhr
19.2
05:25 Uhr

80
06:15 Uhr
33
15:20 Uhr
1020.8
10:50 Uhr

1018.7
18:25 Uhr
1019.8
0,000
00:00 Uhr
0,000
4.039
287
720
12:40 Uhr
3.9
12:40 Uhr

07:39:00
4,9
1
29,0
16:10 Uhr

4
18.7
10:00 Uhr
12.7
15:20 Uhr
19.2
05:25 Uhr
10
00:00 Uhr
5.9
09:45 Uhr
5.9
00:00 Uhr
3.9
13:45 Uhr
12
Zeitraffer
14:56
29.8
17:45 Uhr
18.3
06:30 Uhr

71
03:05 Uhr
24
16:05 Uhr
1021.1
09:50 Uhr

1017.3
18:30 Uhr
1019.5
0,000
00:00 Uhr
0,000
3.861
293
742
13:05 Uhr
4.1
12:45 Uhr

07:36:00
3,8
1
22,5
13:30 Uhr

4
16.3
00:00 Uhr
6.8
16:05 Uhr
18.3
06:30 Uhr
10
00:00 Uhr
5.9
00:00 Uhr
5.9
00:00 Uhr
3.1
12:25 Uhr
13
Zeitraffer
14:53
30.7
14:55 Uhr
17.8
05:45 Uhr

59
05:30 Uhr
36
10:45 Uhr
1017.7
00:40 Uhr

1012.9
19:30 Uhr
1015.0
0,000
00:00 Uhr
0,000
3.378
264
741
11:20 Uhr
3.5
12:55 Uhr

06:01:00
2,3
1
22,5
12:25 Uhr

4
17.9
21:35 Uhr
9.6
04:30 Uhr
17.8
05:45 Uhr
12
21:15 Uhr
5.9
00:00 Uhr
5.9
00:00 Uhr
3.0
12:25 Uhr
14
Zeitraffer
14:49
26.9
16:40 Uhr
20.7
03:15 Uhr

76
03:15 Uhr
45
18:00 Uhr
1014.1
00:10 Uhr

1012.6
16:10 Uhr
1013.3
2,400
03:00 Uhr
0,200
1.727
116
379
11:25 Uhr
2.0
11:25 Uhr

00:05:00
2,2
1
22,5
16:30 Uhr

4
18.3
13:50 Uhr
13.1
00:20 Uhr
20.4
03:55 Uhr
11
02:00 Uhr
5.9
00:00 Uhr
5.9
00:00 Uhr
2.9
13:45 Uhr
15
Zeitraffer
14:45
29.8
18:00 Uhr
18.0
05:35 Uhr

78
05:40 Uhr
38
17:55 Uhr
1015.5
23:45 Uhr

1013.7
04:50 Uhr
1014.5
0,000
00:00 Uhr
0,000
3.201
274
701
13:20 Uhr
3.4
12:55 Uhr

07:06:00
1,8
0
17,7
12:35 Uhr

3
16.7
08:40 Uhr
13.6
18:15 Uhr
18.0
05:35 Uhr
10
22:30 Uhr
5.9
00:00 Uhr
5.9
00:00 Uhr
2.9
17:05 Uhr


 
Wetter Information zur Wetteranzeige
Zeitraffer
Tageslänge (hh:mm)
Höchsttemperatur in °C
Uhrzeit
Tiefsttemperatur in °C
Uhrzeit
Luftfeuchte (max., in %)
Uhrzeit
Luftfeuchte (min., in %)
Uhrzeit
Luftdruck (max., in hPa)
Uhrzeit
Luftdruck (min., in hPa)
Uhrzeit
Luftdruck (Ø, in hPa)
Regenrate (max, mm/h)
Uhrzeit
Niederschlag in mm
Verdunstung in mm
Solar in W/m² (Ø)
Solar in W/m² (max.)
UV-Index (max.)
Sonnenscheindauer (hh:mm)
Windrichtung (Ø)
Windstärke (Ø in km/h)
Windstärke (Ø in bft)
Windböe (max., in km/h)
Uhrzeit
Windböe (max., in bft)
Uhrzeit
Taupunkt (max., in °C)
Uhrzeit
Taupunkt (min., in °C)
Uhrzeit
Windchill (min., in °C)
Uhrzeit
Gewitterindex (max.)
Uhrzeit
Waldbrandindex (max.)
Uhrzeit
Graslandfeuerindex (max.)
Uhrzeit
Staubsturm-Index (max.)
Uhrzeit
16
Zeitraffer
14:42
29.5
16:20 Uhr
19.1
04:55 Uhr

81
04:55 Uhr
27
15:55 Uhr
1016.2
07:35 Uhr

1012.6
19:20 Uhr
1014.6
0,000
00:00 Uhr
0,000
3.633
285
719
12:45 Uhr
3.8
12:45 Uhr

07:37:00
2,8
1
25,7
12:50 Uhr

4
16.3
00:40 Uhr
7.6
19:45 Uhr
19.1
04:55 Uhr
10
00:00 Uhr
5.9
00:00 Uhr
5.9
00:00 Uhr
3.4
12:45 Uhr
17
Zeitraffer
14:38
29.7
14:00 Uhr
18.5
06:15 Uhr

66
05:40 Uhr
33
19:15 Uhr
1013.0
00:35 Uhr

1007.9
19:45 Uhr
1010.3
0,000
00:00 Uhr
0,000
3.251
278
747
13:40 Uhr
3.5
12:30 Uhr

07:14:00
1,9
0
22,5
10:25 Uhr

4
15.9
23:50 Uhr
11.2
00:00 Uhr
18.5
06:15 Uhr
10
21:35 Uhr
5.9
00:00 Uhr
5.9
00:00 Uhr
3.1
10:30 Uhr
18
Zeitraffer
14:34
24.3
16:55 Uhr
19.0
22:40 Uhr

92
22:35 Uhr
62
00:00 Uhr
1010.6
23:25 Uhr

1008.8
15:30 Uhr
1009.5
16,800
10:25 Uhr
8,000
1.118
97
493
13:45 Uhr
2.5
13:45 Uhr

00:12:00
0,6
0
12,9
17:15 Uhr

2
19.0
12:45 Uhr
15.8
02:15 Uhr
19.0
22:40 Uhr
12
21:05 Uhr
5.9
00:00 Uhr
5.9
00:00 Uhr
2.1
18:20 Uhr
19
Zeitraffer
14:31
26.2
12:15 Uhr
16.6
05:55 Uhr

94
05:30 Uhr
54
17:20 Uhr
1011.6
10:35 Uhr

1010.0
02:10 Uhr
1010.7
2,400
14:00 Uhr
0,200
2.032
208
803
12:15 Uhr
3.3
12:05 Uhr

04:25:00
0,7
0
12,9
13:00 Uhr

2
18.2
14:25 Uhr
15.0
17:50 Uhr
16.6
05:55 Uhr
12
00:00 Uhr
0.1
12:35 Uhr
4.5
12:10 Uhr
0.0
00:00 Uhr
20
Zeitraffer
14:26
30.0
15:00 Uhr
16.6
06:10 Uhr

87
02:20 Uhr
40
14:15 Uhr
1012.0
23:50 Uhr

1010.5
05:25 Uhr
1011.0
0,000
00:00 Uhr
0,000
2.591
242
803
13:25 Uhr
4.1
12:55 Uhr

04:18:00
1,0
0
17,7
12:35 Uhr

3
17.7
23:55 Uhr
14.4
06:00 Uhr
16.6
06:10 Uhr
12
21:10 Uhr
5.1
14:00 Uhr
5.9
00:00 Uhr
2.5
11:40 Uhr
21
Zeitraffer
14:22
34.2
16:25 Uhr
20.1
03:55 Uhr

80
03:45 Uhr
34
16:50 Uhr
1012.1
03:05 Uhr

1009.1
18:35 Uhr
1010.9
0,000
00:00 Uhr
0,000
3.277
292
728
13:05 Uhr
4.3
13:00 Uhr

07:08:00
1,1
0
19,3
14:35 Uhr

3
20.9
23:35 Uhr
16.0
16:50 Uhr
20.1
03:55 Uhr
16
22:25 Uhr
5.5
15:15 Uhr
5.9
00:00 Uhr
2.5
13:10 Uhr
22
Zeitraffer
14:19
26.9
14:30 Uhr
19.6
23:45 Uhr

91
08:45 Uhr
59
16:50 Uhr
1014.3
22:55 Uhr

1011.2
00:00 Uhr
1013.0
4,800
08:20 Uhr
2,800
1.194
114
536
13:00 Uhr
3.2
13:00 Uhr

00:21:00
0,2
0
8,0
11:10 Uhr

2
21.4
11:05 Uhr
16.0
23:55 Uhr
19.6
23:45 Uhr
16
02:20 Uhr
5.9
00:00 Uhr
5.9
00:00 Uhr
1.6
16:20 Uhr
23
Zeitraffer
14:15
26.8
13:05 Uhr
17.7
02:40 Uhr

82
04:05 Uhr
40
12:25 Uhr
1014.9
01:40 Uhr

1012.4
18:15 Uhr
1013.7
0,000
00:00 Uhr
0,000
2.464
244
837
13:50 Uhr
4.0
13:10 Uhr

04:36:00
0,6
0
11,3
15:40 Uhr

2
15.8
00:00 Uhr
10.2
19:35 Uhr
17.7
02:40 Uhr
10
00:00 Uhr
4.5
13:05 Uhr
5.9
00:00 Uhr
1.9
11:35 Uhr
24
Zeitraffer
14:11
24.2
12:25 Uhr
15.9
06:10 Uhr

84
06:15 Uhr
48
15:40 Uhr
1015.1
10:35 Uhr

1012.1
18:45 Uhr
1013.9
7,200
17:10 Uhr
1,000
1.880
193
757
12:15 Uhr
3.8
12:15 Uhr

04:16:00
0,4
0
17,7
15:25 Uhr

3
16.3
18:40 Uhr
11.9
15:40 Uhr
15.9
06:10 Uhr
7
02:20 Uhr
5.3
16:25 Uhr
5.9
00:00 Uhr
1.8
15:15 Uhr
25
Zeitraffer
14:07
23.4
15:50 Uhr
14.3
05:30 Uhr

85
05:30 Uhr
45
15:20 Uhr
1014.6
10:20 Uhr

1007.2
23:55 Uhr
1012.2
2,400
09:25 Uhr
0,400
3.860
228
793
12:25 Uhr
3.6
12:20 Uhr

04:05:00
0,4
0
11,3
18:55 Uhr

2
15.1
22:20 Uhr
10.3
17:55 Uhr
14.3
05:30 Uhr
9
22:20 Uhr
4.2
18:55 Uhr
5.9
01:10 Uhr
1.8
18:55 Uhr
26
Zeitraffer
14:03
22.3
08:45 Uhr
16.2
05:50 Uhr

93
06:20 Uhr
56
08:50 Uhr
1007.6
23:55 Uhr

1001.5
08:55 Uhr
1004.0
7,200
05:00 Uhr
4,400
0.838
82
432
08:40 Uhr
1.0
13:00 Uhr

01:56:00
1,2
0
20,9
02:55 Uhr

4
16.0
07:15 Uhr
11.9
09:45 Uhr
16.2
05:50 Uhr
9
21:10 Uhr
5.9
00:00 Uhr
5.9
00:00 Uhr
2.7
03:25 Uhr
27
Zeitraffer
13:59
20.6
12:30 Uhr
13.8
23:50 Uhr

93
00:45 Uhr
55
15:10 Uhr
1014.1
14:55 Uhr

1007.6
00:05 Uhr
1011.9
2,400
00:25 Uhr
0,600
1.651
194
884
12:00 Uhr
3.4
12:25 Uhr

02:58:00
1,1
0
11,3
09:20 Uhr

2
15.2
00:55 Uhr
10.3
18:05 Uhr
13.8
23:50 Uhr
9
00:00 Uhr
1.7
14:45 Uhr
5.2
16:25 Uhr
0.0
00:00 Uhr
28
Zeitraffer
13:56
22.1
16:00 Uhr
13.2
01:45 Uhr

88
01:55 Uhr
62
17:30 Uhr
1012.9
00:00 Uhr

1001.6
23:45 Uhr
1005.7
0,000
00:00 Uhr
0,000
1.041
100
335
12:10 Uhr
1.7
12:10 Uhr

00:00:00
1,6
0
20,9
11:15 Uhr

4
15.6
15:15 Uhr
10.5
06:10 Uhr
13.2
01:45 Uhr
9
20:45 Uhr
3.0
16:30 Uhr
5.9
14:05 Uhr
1.3
08:55 Uhr
29
Zeitraffer
13:51
23.7
15:55 Uhr
14.9
06:35 Uhr

88
05:40 Uhr
45
15:55 Uhr
1007.7
23:05 Uhr

1000.9
00:40 Uhr
1004.4
0,000
00:00 Uhr
0,000
1.626
172
758
13:40 Uhr
3.2
13:35 Uhr

02:06:00
0,2
0
9,7
13:55 Uhr

2
15.0
00:55 Uhr
10.5
17:00 Uhr
14.9
06:35 Uhr
9
00:50 Uhr
3.8
16:00 Uhr
5.9
00:00 Uhr
1.7
14:00 Uhr
30
Zeitraffer
13:47
23.3
14:05 Uhr
13.9
06:35 Uhr

95
20:45 Uhr
49
14:55 Uhr
1009.5
21:25 Uhr

1007.1
04:00 Uhr
1008.1
24,000
19:20 Uhr
17,400
1.702
186
590
12:30 Uhr
2.7
12:30 Uhr

03:25:00
1,6
0
17,7
14:55 Uhr

3
16.7
18:30 Uhr
11.5
16:20 Uhr
13.9
06:35 Uhr
10
20:45 Uhr
5.1
15:40 Uhr
5.9
00:00 Uhr
2.7
16:25 Uhr
31
Zeitraffer
13:44
22.9
15:25 Uhr
14.6
23:25 Uhr

95
01:10 Uhr
49
14:05 Uhr
1018.5
23:25 Uhr

1009.5
00:00 Uhr
1014.5
2,400
03:55 Uhr
0,200
1.930
232
775
13:25 Uhr
3.2
13:00 Uhr

03:54:00
0,9
0
20,9
16:05 Uhr

4
16.2
09:40 Uhr
11.2
14:00 Uhr
14.6
23:25 Uhr
8
00:00 Uhr
0.0
00:00 Uhr
0.0
00:00 Uhr
0.0
00:00 Uhr
Stationsstandorte || Wetterblog || Wissenswertes || Downloads || Seitenhistorie || Partner || Impressum / Datenschutz